Location: Young's Pond
(41.2695°N, 72.7766°W)
Time: 09:14:54
(UTC-05:00)

Daily predictions for brighter satellites

Satellite Brightness Start Highest point End
(mag) Time Altitude Azimuth Time Altitude Azimuth Time Altitude Azimuth
Cosmos 2298 Rocket 4.1 16:42:31 10° SSW 16:47:50 82° ESE 16:53:10 10° NNE
NOSS 2-3 (D) 4.4 16:44:21 10° SW 16:48:54 58° NW 16:54:15 10° NNE
CZ-4 R/B 2.3 16:46:28 10° SE 16:49:41 25° ENE 16:52:58 10° NNE
IRAS Rocket 4.3 16:44:37 10° SE 16:49:56 55° ENE 16:55:17 10° N
BREEZE-M DEB (TANK) 2.2 16:52:56 10° NW 16:55:21 62° NNE 17:01:31 10° ESE
Hubble Space Telescope 3.4 16:56:10 10° SSW 16:58:17 14° S 17:00:24 10° SSE
CSL-04 Rocket 3.7 16:56:29 10° SSE 17:01:52 69° ENE 17:07:20 10° N
DELTA 2 R/B (1) 3.8 16:56:44 10° WSW 17:02:16 71° S 17:07:50 10° E
NOSS 3-2 (A) 4.5 16:55:30 10° NNW 17:02:20 38° NE 17:09:44 10° ESE
Cosmos 990 Rocket 4.2 16:58:02 10° SSW 17:03:09 73° WNW 17:08:21 10° NNE
Meteor 1-19 Rocket 4.4 16:59:37 10° S 17:05:06 53° E 17:10:43 10° NNE
Meteor 1-28 Rocket 3.6 17:02:06 10° NNE 17:05:42 42° E 17:09:17 10° S
Cosmos 1455 Rocket 3.3 17:01:50 10° N 17:06:07 47° ENE 17:10:21 10° SSE
SJ-12 4.4 17:02:25 10° S 17:06:30 66° WSW 17:10:36 10° NNW
Cosmos 1544 Rocket 3.6 17:05:58 10° N 17:10:16 56° E 17:14:31 10° SSE
Cosmos 1697 Rocket 3.9 17:06:18 10° SSE 17:10:30 22° E 17:14:25 11° NE
AQUARIUS 4.1 17:06:06 10° SSE 17:10:32 65° ENE 17:15:01 10° N
Cosmos 1743 2.6 17:09:49 10° N 17:13:41 72° E 17:17:34 10° SSE
Cosmos 1428 Rocket 4.5 17:07:52 10° N 17:14:05 88° ENE 17:20:13 10° S
SJ-7 4.3 17:10:31 10° SSE 17:14:31 86° ENE 17:18:31 10° NNW
YAOGAN 1 3.0 17:11:27 10° SE 17:15:26 37° ENE 17:19:27 10° N
ATLAS 2AS CENTAUR R/B 3.2 17:07:56 10° SW 17:15:41 83° NW 17:23:53 10° NNE
CZ-2C R/B 4.1 17:11:59 10° NNE 17:16:32 47° E 17:21:06 10° S
ATLAS 3B R/B 2.6 17:12:16 10° NNW 17:18:55 64° NE 17:25:22 10° SE
Cosmos 2082 4.0 17:14:45 10° NNW 17:20:08 45° ENE 17:25:30 10° SE
USA 116 3.6 17:17:19 10° NNE 17:20:20 40° E 17:23:16 10° S
SMAP 3.1 17:21:15 10° SSE 17:25:54 85° WSW 17:30:35 10° NNW
USA 161 4.4 17:27:13 10° NNW 17:29:09 16° WNW 17:31:06 10° WSW
USA 215 3.5 17:22:55 10° SE 17:29:27 74° SW 17:36:00 10° NW
Cosmos 158 Rocket 3.9 17:24:51 10° NNW 17:29:55 62° ENE 17:34:49 10° SSE
Cosmos 2279 Rocket 4.4 17:24:14 10° SSW 17:30:28 68° W 17:36:44 10° N
COSMO-SKYMED 1 3.1 17:26:43 10° NNE 17:30:48 38° E 17:34:50 10° SSE
Cosmos 2227 Rocket 2.1 17:27:10 10° NNW 17:32:51 71° ENE 17:38:28 10° SSE
Landsat 4 4.0 17:29:21 10° NNE 17:33:03 46° E 17:36:43 10° S
NOSS 3-4 (A) 4.1 17:31:43 10° S 17:37:18 36° ESE 17:41:06 19° ENE
NOSS 3-4 (C) 4.1 17:31:51 10° S 17:37:24 36° ESE 17:41:10 19° ENE
SJ 16-02 1.4 17:34:21 10° S 17:38:39 60° ESE 17:42:24 14° NNE
ALOS 2.7 17:34:53 10° SE 17:39:09 37° ENE 17:43:27 10° N
CORIOLIS 4.4 17:35:28 10° S 17:40:52 76° WSW 17:46:18 10° NNW
ERS-2 2.6 17:37:58 10° SE 17:41:23 38° ENE 17:44:49 10° N
NOSS 8 (A) 4.2 17:39:38 10° SSW 17:42:57 84° ESE 17:44:38 26° NE
Cosmos 1271 Rocket 3.7 17:39:25 10° NNW 17:43:06 49° W 17:46:48 10° S
Meteor 1-23 Rocket 4.4 17:39:01 10° S 17:44:36 54° E 17:50:09 10° NNE
Meteor 2-9 Rocket 4.0 17:39:28 10° N 17:45:00 81° E 17:50:23 10° SSE
Atlas Centaur 2 4.0 17:45:01 10° WSW 17:48:50 20° SSW 17:52:08 10° SSE
SPOT 3 Rocket 3.7 17:45:11 10° SE 17:50:09 50° ENE 17:55:09 10° N
IRS-1A Rocket 4.3 17:45:01 10° SSE 17:50:38 84° WSW 17:56:12 10° NNW
Cosmos 1980 Rocket 3.1 17:46:12 10° SSE 17:50:53 27° ESE 17:52:13 25° E
Okean 1-7 Rocket 4.4 17:50:21 10° SSE 17:54:03 29° E 17:54:03 29° E
Cosmos 2297 Rocket 2.2 17:53:58 10° NNW 17:59:38 83° WSW 18:05:18 10° SSE
CENTAUR R/B 3.7 17:53:02 10° NNW 17:59:54 33° NE 18:02:54 26° ENE
Cosmos 724 4.2 17:54:52 10° NNW 18:00:41 85° ENE 18:06:31 10° SSE
SKYMED 3 4.5 17:56:49 11° NNE 18:00:57 84° ESE 18:05:16 10° SSW
Cosmos 1025 Rocket 3.1 18:00:22 10° SSE 18:04:31 50° E 18:05:43 38° NE
Cosmos 1536 Rocket 4.3 18:02:33 10° SSW 18:06:48 53° W 18:11:04 10° N
Abrixas rocket 3.8 18:05:20 10° WNW 18:07:55 23° N 18:07:55 23° N
Nadezhda 2 Rocket 4.5 18:03:08 10° N 18:09:25 65° E 18:15:45 10° SSE
Cosmos 1656 3.7 18:04:51 10° SSW 18:10:27 78° WNW 18:14:33 19° NNE
RESURS DK-1 4.5 18:07:59 10° SSE 18:08:49 14° SE 18:08:49 14° SE
ISS -2.0 18:09:11 10° WNW 18:12:08 31° SW 18:14:26 14° SSE
Cosmos 1269 Rocket 4.0 18:08:52 10° NNW 18:14:12 86° WSW 18:19:29 10° SSE
PSLV R/B 3.4 18:14:43 10° W 18:17:28 64° WSW 18:17:28 64° WSW
Cosmos 494 Rocket 4.2 18:13:00 10° N 18:18:05 46° ENE 18:18:26 45° ENE
Cosmos 1125 Rocket 4.1 18:13:00 10° SW 18:18:12 56° WNW 18:22:43 14° N
Meteor 2-4 Rocket 4.5 18:13:35 10° SSW 18:18:51 50° WNW 18:24:04 10° N
SKYMED 2 4.0 18:15:01 12° N 18:18:55 62° WNW 18:23:11 10° SSW
Cosmos 2084 3.6 18:19:59 10° SSW 18:23:42 53° SSE 18:23:42 53° SSE
CZ-4 R/B 3.9 18:21:37 10° SSW 18:24:41 22° W 18:27:48 10° NW
Gblst 52 Del rocket 4.3 18:28:18 10° NW 18:33:58 66° NNE 18:35:04 55° E
Cosmos 2360 4.2 18:30:04 10° S 18:35:40 60° ESE 18:36:01 58° E
Cosmos 2263 Rocket 4.4 18:33:38 10° N 18:33:39 10° N 18:33:39 10° N
NOAA 12 4.5 18:33:06 10° S 18:38:19 63° WSW 18:43:33 10° NNW
SL-24 R/B - RUBIN 2 4.2 18:35:03 10° SSW 18:41:18 77° ESE 18:42:12 64° ENE
FENGYUN 3A 4.2 18:36:07 10° S 18:41:24 58° W 18:46:43 10° NNW
Okean 2 4.1 18:40:42 10° SSW 18:44:42 53° W 18:45:16 48° NW
DELTA 2 R/B (1) 3.6 18:43:03 10° W 18:48:36 69° S 18:49:04 65° SSE
S3M 4.1 18:45:06 10° S 18:50:04 54° SE 18:50:04 54° SE
NOSS 3-2 (A) 4.5 18:46:10 10° NW 18:53:41 61° WSW 19:01:45 10° SSE
Cosmos 1697 Rocket 3.3 18:48:32 10° SW 18:54:01 52° WNW 18:56:12 34° N
NOSS 3-2 (C) 4.2 18:53:08 10° NW 19:00:43 71° WSW 19:08:55 10° SSE
Gbstr 26 Del rocket 4.4 18:53:26 10° WSW 19:01:21 67° NNW 19:02:48 55° NNE
SJ 16-02 4.1 19:15:24 10° W 19:17:41 14° WNW 19:19:27 11° NNW
Cosmos 1553 Rocket 4.3 19:19:00 10° SSW 19:25:20 64° W 19:26:04 59° NW
NOSS 3-4 (A) 4.3 19:22:09 10° WSW 19:28:03 43° NW 19:28:35 42° NNW
NOSS 3-4 (C) 4.3 19:22:14 10° WSW 19:28:09 44° NW 19:28:39 43° NNW
Cosmos 1980 Rocket 3.3 19:29:15 10° SW 19:34:02 41° WNW 19:34:02 41° WNW
CENTAUR R/B 3.3 19:43:24 10° NW 19:50:09 66° WNW 19:50:09 66° WNW
